Weather Roundup
Issued by NWS

Home | Current Version | Previous Version | Graphics & Text | Print | Product List | Glossary Off
Versions: 1 2 3 4 5 6 7 8 9 10 11 12 13 14 15 16 17 18 19 20 21 22 23 24 25 26 27 28 29 30 31 32 33 34 35 36 37 38 39 40 41 42 43 44 45 46 47 48 49 50

000
NZUS93 KARX 280610
HRRWXR

CURRENT HOURLY OBSERVATIONS ACROSS
MUCH OF THE UPPER MISSISSIPPI VALLEY
NATIONAL WEATHER SERVICE LA CROSSE WI
100 AM CDT THU AUG 28 2014


...SOUTHEAST MINNESOTA...


CITY           SKY/WX    TMP DP  RH WIND       PRES   REMARKS
ROCHESTER      FAIR      59  56  89 SE3       30.16S
ROCHESTER/MAYO FAIR      62  58  86 CALM      30.16S
WINONA         FAIR      61  59  94 CALM      30.16R
AUSTIN         FAIR      57  55  94 CALM      30.14F
ALBERT LEA     FAIR      63  57  82 SE6       30.14S
DODGE CENTER   FAIR      61  59  94 CALM      30.16S
PRESTON        FAIR      59  59 100 CALM      30.16F
OWATONNA       FAIR      61  57  88 SE3       30.14F
FARIBAULT      FAIR      64  55  72 SE5       30.14S
$$

...ELSEWHERE IN MINNESOTA...


CITY           SKY/WX    TMP DP  RH WIND       PRES   REMARKS
MINNEAPOLIS    FAIR      65  58  78 E8        30.13F
INTNL FALLS    FAIR      45  45 100 CALM      30.11F
DULUTH         FAIR      57  52  83 CALM      30.15R
RED WING       FAIR      63  57  82 CALM      30.14S
REDWOOD FALLS  FAIR      62  58  86 SE6       30.10F
MANKATO        FAIR      63  55  77 SE8       30.12F
WORTHINGTON    CLOUDY    64  63  94 SE3       30.12S
FAIRMONT       CLOUDY    63  57  82 E7        30.11F
$$

...SOUTHWEST WISCONSIN...


CITY           SKY/WX    TMP DP  RH WIND       PRES   REMARKS
LA CROSSE      FAIR      62  60  93 SE6       30.15R
PRAIRIE DU CHI FAIR      61  59  93 CALM      30.14S
BOSCOBEL       CLOUDY    60  58  92 CALM      30.16S FOG
LONE ROCK      CLOUDY    63  58  83 CALM      30.16R
PLATTEVILLE    CLOUDY    65  61  87 CALM      30.16S
FORT MC COY    FAIR      56  55  95 CALM      30.17R
CAMP DOUGLAS   MOCLDY    55  55 100 NW2       30.16S FOG
VIROQUA        FAIR      58  58 100 CALM      30.17S
WIS DELLS      FAIR      57  55  94 CALM      30.16R
$$

...ELSEWHERE IN WISCONSIN...


CITY           SKY/WX    TMP DP  RH WIND       PRES   REMARKS
MILWAUKEE      FAIR      63  56  78 E3        30.16S
MADISON        FAIR      64  61  90 SE6       30.16R
GREEN BAY      FAIR      55  54  96 CALM      30.16R
EAU CLAIRE     FAIR      57  55  93 CALM      30.15S
BLACK RVR FLS  FAIR      53  53 100 CALM      30.16S
MEDFORD        FAIR      50  49  95 CALM      30.18S
WAUSAU         FAIR      57  48  72 N3        30.17R
WIS RAPIDS     FAIR      57  54  89 CALM      30.17S
MARSHFIELD     FAIR      59  51  75 NE6       30.17R
RICE LAKE      FAIR      53  52  95 CALM      30.18S
$$

...NORTHEAST IOWA...


CITY           SKY/WX    TMP DP  RH WIND       PRES   REMARKS
WATERLOO       CLOUDY    63  60  90 NE3       30.11F
DUBUQUE        CLOUDY    64  62  93 NE5       30.14F
DECORAH        FAIR      61  59  94 CALM      30.15S
MASON CITY     FAIR      63  62  97 E5        30.14F
CHARLES CITY   FAIR      63  59  88 E5        30.15S
OELWEIN        FAIR      61  61 100 NE5       30.14S
$$

...ELSEWHERE IN IOWA...


CITY           SKY/WX    TMP DP  RH WIND       PRES   REMARKS
DES MOINES     FAIR      71  67  87 E5        30.09R
IOWA CITY      CLOUDY    69  63  81 NE3       30.12S
FORT DODGE     CLOUDY    66  63  88 E8        30.10F
MARSHALLTOWN   CLOUDY    66  64  93 E5        30.10F
CEDAR RAPIDS   CLOUDY    66  62  87 E6        30.11S
$$

...NORTHERN ILLINOIS...


CITY           SKY/WX    TMP DP  RH WIND       PRES   REMARKS
CHICAGO-OHARE  FAIR      68  58  70 NE5       30.13S
DUPAGE         FAIR      63  60  90 N3        30.14R
CHICAGO-MIDWAY FAIR      70  61  73 NE6       30.13R
MOLINE         FAIR      64  61  90 CALM      30.11S
ROCKFORD       MOCLDY    65  62  90 CALM      30.16S
STERLING       FAIR      63  61  94 E3        30.13S
PEORIA         FAIR      73  65  75 E10       30.09S
$$

NOTE: "FAIR" INDICATES FEW OR NO CLOUDS BELOW 12,000 FEET WITH NO
SIGNIFICANT WEATHER AND/OR OBSTRUCTIONS TO VISIBILITY. WIND
SPEEDS ARE IN MILES-PER-HOUR.



USA.gov is the U.S. government's official web portal to all federal, state and local government web resources and services.